Wind_Speed
2 2 3 3 3 3 3 4 3 3 3 2 2 2 2 2 2 2 3 4 5 5 5 6 6 7 7 8 8 8 9 9 9 9 10 11 11 11 11 12 12 12 12 12 13 14 15 15 16 17 17 18 19 20 20 20 20 20 19 20 21 21 20 20 21 22 22 22 23 23 23 23 22 20 19 18 19 20 21 22 23 23 23 24 25
3 3 3 4 3 3 3 3 3 2 2 2 2 3 3 3 2 3 3 4 4 4 5 6 6 7 7 7 7 8 8 8 8 9 9 10 11 11 11 11 12 12 12 13 13 14 15 15 16 17 18 18 19 19 19 20 22 22 21 21 21 21 21 21 22 22 22 23 24 25 25 25 24 23 22 19 19 20 21 22 23 23 24 23 23
5 4 4 5 5 4 4 4 4 4 3 3 4 4 3 2 2 2 2 2 2 3 4 4 5 6 6 7 7 7 7 7 8 8 8 9 10 11 12 13 13 14 14 14 14 14 15 16 16 17 18 19 19 19 19 20 22 22 23 22 22 22 21 21 22 23 24 23 24 24 26 26 26 25 25 23 22 22 22 21 22 22 23 23 23
8 7 6 6 6 6 5 5 5 5 5 5 4 4 2 1 1 1 1 2 2 2 2 3 4 5 6 7 7 7 8 8 8 9 9 10 11 13 14 15 16 16 17 17 17 16 17 17 18 18 19 20 21 20 20 21 21 22 23 23 23 23 23 23 23 24 25 25 25 24 25 26 25 26 27 27 25 24 24 23 22 22 22 22 24
11 10 9 8 7 7 7 7 6 6 6 6 5 4 3 2 2 3 3 4 4 4 5 5 6 7 8 8 9 10 10 10 10 11 11 12 12 13 15 16 17 18 18 18 19 18 18 19 20 20 20 21 22 22 22 22 22 22 23 24 25 25 26 26 26 26 27 27 27 26 25 26 26 26 27 27 27 25 24 24 23 23 23 23 24
13 12 11 10 9 9 9 8 7 7 7 7 7 6 4 4 4 5 5 6 7 7 8 8 9 9 10 11 12 12 13 13 13 13 13 14 14 15 16 17 18 18 19 20 20 20 21 21 21 21 22 22 23 23 23 24 23 23 24 25 26 27 28 29 28 28 29 30 29 29 28 27 28 28 26 26 27 27 25 24 24 23 23 24 24
14 14 13 12 12 11 10 9 9 8 8 8 8 8 7 7 7 8 8 8 9 10 10 10 11 12 12 12 13 13 14 14 14 15 15 15 15 16 17 18 19 20 21 22 22 23 23 23 23 23 23 24 24 25 26 26 25 25 25 25 26 28 29 30 29 30 31 31 31 32 31 30 30 30 27 26 26 27 27 26 25 24 24 24 25
14 15 15 15 14 14 12 11 10 10 10 10 10 10 10 10 11 11 10 10 11 12 12 12 12 13 14 14 14 14 14 15 15 15 16 16 17 17 18 19 20 21 23 24 24 25 25 25 24 24 25 25 26 27 28 28 28 28 27 27 27 28 30 30 31 31 32 32 33 34 34 33 32 32 30 29 27 28 29 30 29 27 26 26 26
15 15 16 16 16 16 15 13 11 11 11 11 12 13 13 13 14 14 13 13 13 13 13 13 14 15 16 17 17 16 16 17 17 17 18 18 19 19 20 21 21 22 23 24 25 26 26 26 26 26 26 26 26 27 28 29 30 30 30 29 29 29 30 31 31 32 33 33 34 35 36 36 35 34 33 32 31 30 30 32 32 30 29 30 29
16 16 16 17 18 18 17 15 14 14 13 13 14 15 15 15 15 16 15 15 15 14 14 15 16 17 19 19 19 19 19 19 19 20 20 20 21 21 22 22 22 23 24 25 26 26 26 26 26 26 26 26 27 28 29 30 31 31 31 31 31 31 31 31 32 33 34 34 35 36 37 37 37 36 34 34 34 34 34 35 33 31 30 32 33
16 18 18 17 17 17 17 17 17 17 16 16 16 17 17 17 17 17 18 18 17 17 17 17 18 20 21 22 22 21 21 20 20 21 21 21 21 22 23 24 25 26 26 27 26 26 26 26 26 26 26 26 27 28 29 30 31 31 32 32 32 33 33 33 33 34 35 36 37 37 37 38 37 37 36 36 36 36 37 36 34 32 31 31 33
15 17 16 15 14 14 15 16 17 18 18 18 19 20 20 21 20 20 21 21 21 21 21 22 22 23 23 24 24 24 23 21 21 21 22 22 23 23 24 25 26 27 28 28 27 26 25 25 25 26 26 27 28 29 30 31 31 32 32 33 33 33 34 34 34 35 36 37 38 39 39 39 39 38 38 38 38 38 37 35 34 34 33 32 31
13 14 14 15 14 13 14 14 15 17 18 19 20 21 22 23 23 23 24 24 24 25 25 25 25 25 25 24 23 23 23 22 21 22 23 24 24 24 25 26 27 28 28 28 26 25 24 24 25 25 26 27 28 29 30 31 32 33 33 33 33 33 34 34 35 36 37 38 39 39 40 40 40 39 39 39 39 40 39 36 35 36 35 32 31
11 12 13 15 16 16 16 15 14 15 17 18 19 20 20 22 23 23 23 24 25 25 25 25 25 24 24 23 21 21 22 23 23 23 24 25 26 26 27 27 28 28 28 27 25 24 23 23 24 24 26 27 29 30 31 32 32 33 33 33 34 34 34 35 36 37 37 38 39 40 40 40 40 40 40 40 41 41 41 40 39 39 36 33 33
11 11 12 15 17 17 17 15 13 13 15 17 18 18 18 19 21 22 22 22 22 23 23 23 21 21 21 21 20 20 21 23 24 25 25 26 27 27 27 27 27 27 27 26 24 23 23 23 24 25 26 28 30 31 32 32 32 33 33 33 34 34 35 36 37 37 38 39 40 40 40 40 40 40 40 41 41 42 43 44 43 41 38 35 35
8 10 12 15 16 17 16 14 14 13 14 16 17 16 16 17 19 21 21 21 20 20 20 20 20 20 21 21 21 20 21 22 23 25 25 26 27 27 26 25 25 26 26 25 24 23 24 24 24 26 27 29 30 31 32 32 33 33 33 34 34 35 36 37 38 39 39 39 39 39 39 39 39 40 41 41 43 44 45 46 46 45 41 37 36
6 5 8 11 13 15 16 14 14 13 13 15 15 15 16 16 18 20 20 20 19 18 18 19 20 21 21 21 21 21 21 22 23 24 25 27 27 27 25 23 24 25 24 23 22 23 24 25 25 26 28 29 31 32 32 33 33 33 34 34 35 36 37 38 39 40 39 39 39 39 40 40 40 41 42 43 44 46 47 47 47 47 45 42 40
12 11 10 9 9 12 13 13 13 13 14 14 14 15 16 17 18 19 20 21 20 19 19 19 20 21 22 22 22 21 21 22 23 24 24 26 27 25 23 22 23 23 23 22 22 22 24 25 26 27 28 30 32 33 34 34 34 34 34 34 36 36 37 38 39 40 38 38 39 40 40 40 41 42 43 44 46 47 48 49 48 47 47 46 45
16 16 14 10 8 9 10 12 13 14 14 13 14 15 16 17 18 19 21 22 21 20 20 21 22 23 23 23 22 21 21 22 23 24 25 25 25 24 22 22 22 22 23 23 22 23 24 26 26 27 28 30 32 33 34 35 35 35 35 36 36 37 37 38 39 40 38 38 39 40 41 41 42 43 45 46 47 48 49 50 48 47 48 48 47
17 16 14 10 8 10 12 14 15 15 14 13 14 14 15 17 19 20 21 22 22 22 23 23 23 24 24 24 23 21 21 22 23 24 24 24 24 23 22 22 22 22 23 24 24 25 26 27 28 28 28 30 32 34 35 37 37 37 36 36 37 38 39 39 40 41 41 41 42 42 44 44 44 45 46 47 48 49 50 50 48 47 48 49 47
18 16 13 10 8 9 12 14 15 14 13 13 13 14 15 17 19 21 23 22 22 24 26 25 25 24 25 26 25 24 23 22 23 24 24 24 24 23 22 21 22 23 24 25 27 27 28 29 29 29 30 32 34 35 36 38 39 39 39 38 39 39 40 41 42 43 43 44 44 45 46 46 46 47 48 48 47 48 49 49 48 47 48 49 47
21 19 15 10 8 9 10 12 13 12 12 12 13 15 16 18 20 22 23 23 24 25 27 28 27 26 26 27 27 25 23 22 24 25 25 24 24 24 22 22 22 23 25 27 28 29 30 30 30 30 31 33 34 35 37 39 40 41 42 42 41 41 42 43 44 44 45 45 45 46 47 48 49 49 50 48 46 47 48 47 48 48 48 48 46
22 21 18 14 11 11 12 12 12 12 13 14 15 17 18 19 21 23 24 25 27 27 28 28 28 27 27 28 28 27 25 25 26 27 27 26 25 24 23 23 23 24 26 28 29 30 31 32 32 32 32 33 35 37 39 41 42 43 43 43 43 43 44 45 45 46 46 45 46 47 49 50 50 49 49 48 47 47 47 47 47 49 48 46 44
21 22 21 18 14 13 14 15 15 15 16 17 18 19 20 22 23 24 26 28 30 29 29 29 29 28 27 28 29 29 29 29 29 29 29 27 25 23 23 24 25 26 28 30 31 32 32 33 33 33 33 35 36 38 40 41 42 43 44 44 45 45 46 47 47 47 47 47 47 48 49 50 49 48 47 47 48 48 49 49 49 47 43 40 40
23 24 24 20 17 17 17 17 18 18 19 20 21 22 22 23 25 27 29 30 31 31 30 30 30 29 29 29 28 29 32 32 31 31 31 28 25 25 25 26 27 29 30 32 33 33 33 33 34 34 35 37 38 39 40 41 42 43 44 44 46 47 48 48 48 48 48 49 49 49 50 49 48 47 47 47 49 49 49 50 49 44 39 38 38
23 25 24 20 19 20 22 22 21 21 22 23 23 24 25 26 27 28 30 32 33 33 32 32 32 31 31 30 28 29 33 33 31 32 32 30 28 27 28 28 30 31 33 34 34 33 33 34 35 36 38 39 39 40 41 43 43 44 44 45 47 49 50 50 50 49 50 50 50 50 50 48 45 45 47 49 50 50 49 49 46 43 41 42 42
22 23 22 20 21 24 25 24 24 24 25 25 26 28 29 29 30 31 32 34 35 35 35 34 33 32 32 32 31 32 33 32 31 32 31 31 31 30 30 31 32 33 34 35 35 34 35 36 37 39 40 41 41 41 43 44 44 45 46 47 48 50 51 51 51 50 50 50 50 50 47 44 43 44 48 51 51 49 47 46 44 42 42 43 43
26 25 24 24 28 30 28 26 25 25 26 27 30 32 32 32 33 34 34 34 36 37 37 36 35 33 33 34 32 32 32 30 31 32 33 33 33 31 31 33 34 35 36 36 36 36 38 39 39 40 41 42 42 42 44 45 46 47 48 47 48 49 50 51 51 51 50 49 49 47 43 40 42 46 49 50 49 46 43 41 41 41 40 41 41
30 28 28 31 33 32 29 28 28 28 29 30 33 34 35 35 34 35 34 34 36 37 38 38 37 36 36 35 32 31 33 32 31 33 35 36 34 32 33 34 35 36 36 37 38 39 40 41 40 40 41 41 42 44 45 46 47 49 49 48 48 49 50 51 51 50 49 47 45 42 38 39 42 45 46 47 46 42 39 38 39 39 39 41 41
33 31 31 32 32 31 31 31 33 33 34 35 35 34 34 35 35 35 35 35 36 38 39 40 40 39 39 38 34 32 32 32 32 34 37 38 35 32 34 36 36 36 37 38 39 40 41 41 41 40 40 41 43 45 46 47 48 49 49 49 48 49 50 49 49 48 46 44 42 39 36 38 41 42 43 44 42 39 36 36 38 38 39 41 41
35 34 32 30 29 31 33 34 37 39 39 39 38 36 35 35 35 35 34 35 37 38 39 40 41 41 40 38 35 33 31 30 31 36 39 39 35 33 35 37 37 36 38 39 40 41 42 41 41 41 41 43 45 46 47 48 49 50 50 49 48 48 48 47 47 47 45 43 42 40 37 37 40 41 42 42 39 37 37 37 38 39 39 40 40
37 37 35 32 33 36 38 39 41 42 42 42 42 41 39 38 37 36 34 34 35 36 38 39 38 40 41 39 36 34 31 31 33 37 38 35 34 34 36 37 37 37 38 40 41 42 42 41 41 42 43 45 46 47 47 48 49 49 50 49 47 47 47 47 47 46 45 44 44 42 39 38 40 41 41 40 39 37 37 38 39 40 39 39 39
38 39 38 39 42 44 44 45 45 44 44 44 45 44 43 42 42 39 35 33 34 35 37 38 39 40 40 38 37 35 32 32 34 35 34 33 33 34 36 38 38 38 39 41 41 42 42 41 41 43 45 46 45 46 46 47 48 49 49 49 48 47 47 47 46 46 46 45 44 43 41 40 42 42 41 40 39 38 37 38 39 39 38 38 38
37 39 41 43 45 46 47 48 48 47 47 47 46 45 45 45 44 41 37 36 37 38 39 40 40 40 38 36 37 37 35 34 34 34 33 33 34 35 37 38 38 38 39 40 42 43 41 40 44 47 46 42 41 44 45 46 48 48 48 48 47 47 47 46 46 46 45 45 44 43 42 42 44 44 41 40 39 38 37 37 37 37 36 36 37
37 40 44 46 46 47 49 52 50 49 49 48 46 45 45 44 42 40 39 39 39 40 40 40 39 39 38 36 36 37 37 34 32 33 34 34 35 35 37 38 38 39 39 39 42 42 40 41 46 45 40 39 43 46 47 47 48 48 47 46 46 46 46 47 47 47 46 45 44 43 42 42 43 43 41 40 39 37 36 35 35 34 34 34 36
41 45 49 50 50 49 52 53 51 49 48 46 44 43 41 39 38 38 38 38 39 40 42 43 41 39 37 34 33 36 36 33 32 34 36 36 35 35 36 38 39 38 37 38 42 42 39 41 42 39 40 47 51 50 49 49 49 48 46 45 45 45 46 47 48 48 47 45 44 43 42 42 43 42 40 38 37 36 35 34 33 33 33 34 36
47 49 51 52 52 53 53 51 48 45 44 42 41 41 40 39 39 38 36 36 39 40 41 41 39 35 33 32 32 33 34 34 35 37 37 36 36 35 36 38 38 37 36 39 42 42 41 43 43 43 47 51 51 50 51 51 50 48 47 46 45 45 45 46 47 47 47 45 45 43 42 42 43 41 38 37 36 35 34 33 32 32 33 35 36
47 50 53 54 54 52 49 45 42 40 40 41 41 41 41 42 41 39 37 38 39 39 39 37 35 32 31 31 32 33 34 36 38 38 36 36 35 34 36 37 37 36 37 41 43 43 44 46 46 48 50 49 49 53 54 52 51 50 48 47 46 45 45 45 45 46 46 45 45 44 43 43 43 40 37 36 34 33 33 32 31 31 33 35 36
49 51 53 52 49 46 42 39 39 39 39 40 41 41 42 42 40 39 38 37 36 36 36 34 33 34 34 32 34 36 37 39 39 37 35 34 34 35 36 37 36 37 40 43 44 44 46 48 48 49 50 51 53 55 55 53 52 50 49 48 47 46 45 45 45 45 45 45 45 44 43 43 41 37 35 34 33 32 32 31 30 31 33 35 36
51 52 51 47 43 40 38 38 39 39 39 40 40 40 40 40 41 39 35 34 32 31 30 31 34 38 39 37 37 38 38 39 39 37 34 34 34 36 37 37 38 39 41 43 44 45 47 49 49 50 50 52 54 55 54 53 51 50 49 49 47 46 45 44 44 44 44 44 44 44 43 41 38 34 33 33 32 32 31 30 31 31 33 35 36
51 52 50 46 41 39 38 39 39 39 39 40 40 40 40 41 42 39 34 33 32 30 29 32 35 39 41 40 39 38 38 40 40 36 34 34 36 37 37 37 39 41 42 43 44 45 47 49 50 50 51 52 53 54 53 52 50 50 49 48 47 46 44 43 43 42 42 43 43 42 41 38 34 33 33 32 31 30 30 30 31 32 33 35 35
52 51 50 47 44 41 40 39 38 38 38 39 41 42 41 40 40 38 35 34 34 33 32 34 37 41 44 43 40 38 40 43 40 35 34 36 37 37 35 36 40 42 44 44 45 45 47 50 51 50 51 53 53 53 52 50 49 48 47 46 45 45 43 42 42 41 42 42 41 40 39 35 32 32 32 30 30 29 28 29 30 32 33 34 34
50 48 47 47 46 44 43 41 40 38 38 39 40 42 41 40 38 38 38 36 35 33 33 35 39 40 40 39 39 39 41 42 38 35 36 37 37 36 36 39 42 44 44 45 46 48 49 50 51 51 52 53 53 52 51 49 47 46 44 44 43 42 41 40 40 40 41 40 39 38 36 32 31 30 29 28 27 26 26 27 29 31 33 32 31
44 43 44 45 46 46 45 43 41 39 38 38 39 40 40 40 39 39 40 39 36 34 34 36 36 35 35 37 41 41 41 39 36 35 37 36 36 37 40 42 45 46 46 47 49 50 50 50 50 51 52 53 52 51 49 47 45 43 42 41 41 39 39 38 38 39 39 38 36 35 33 30 29 28 27 26 25 24 25 27 29 31 32 30 28
41 43 44 45 45 44 43 41 40 39 38 37 37 38 38 39 40 42 41 39 37 36 35 34 33 37 39 42 41 39 38 37 35 34 34 35 36 39 41 44 47 48 48 49 50 50 50 50 51 51 52 52 51 49 47 45 43 41 41 40 39 38 38 37 37 38 37 35 34 32 30 28 27 26 26 25 24 24 25 27 29 30 29 26 26
40 41 42 42 42 41 39 37 37 37 37 37 37 37 37 37 37 38 37 35 35 35 34 32 33 38 40 38 37 39 39 37 34 33 33 35 36 37 41 46 48 48 48 49 50 49 49 50 51 51 51 51 49 47 45 43 41 40 40 40 39 38 38 37 37 37 35 32 32 30 28 27 26 26 26 25 25 25 25 26 28 28 26 24 24
37 37 37 39 40 40 38 37 36 36 36 36 35 35 34 33 31 31 33 36 38 38 37 36 36 38 39 39 40 42 41 36 33 33 35 36 36 39 44 47 47 47 48 48 48 48 49 49 50 51 50 49 47 46 44 42 41 40 40 40 39 38 37 36 36 36 33 31 30 29 27 26 25 25 26 25 25 24 25 26 26 26 24 22 22
36 35 36 37 38 39 38 37 36 35 35 34 34 33 33 32 32 32 35 41 43 41 41 42 43 43 44 46 45 41 36 33 33 34 36 38 40 42 45 46 46 47 47 47 47 48 48 49 49 50 49 47 46 45 43 41 40 39 39 39 38 37 36 36 36 35 32 29 29 28 26 25 25 25 25 25 24 24 24 25 25 24 23 21 21
34 34 34 35 36 36 36 35 34 34 33 34 34 35 34 35 35 34 36 41 44 43 42 44 47 47 46 45 41 34 31 31 33 36 39 40 42 43 45 45 46 46 46 46 47 48 48 48 49 47 46 45 45 43 40 38 38 37 37 37 36 36 35 35 35 34 31 28 28 28 27 26 25 24 25 24 23 23 23 23 23 22 21 20 21
32 33 33 34 34 34 33 33 33 33 33 34 36 36 37 37 37 36 36 39 43 44 45 46 46 43 38 34 30 28 30 36 40 42 42 43 43 44 45 45 46 47 47 48 48 48 48 48 46 45 45 45 44 41 38 36 36 35 35 35 35 34 34 34 35 33 29 27 28 28 27 25 24 24 24 24 23 22 22 22 21 21 20 19 20
32 32 33 33 33 33 33 33 33 34 35 36 37 37 37 36 36 37 37 36 39 41 43 40 37 34 33 33 34 36 41 48 49 46 44 45 45 45 46 46 47 48 49 49 49 48 48 46 44 44 45 44 41 37 35 34 34 33 33 34 34 34 33 33 33 31 28 27 28 27 26 25 24 23 23 23 23 22 21 21 21 20 19 19 19
Wind_Direction
253 223 210 203 185 180 168 151 144 126 112 111 114 127 139 132 111 79 60 51 50 44 35 28 24 24 20 18 19 17 17 17 17 15 11 10 11 7 1 358 356 354 352 348 346 345 344 344 344 345 345 342 339 340 342 336 328 328 329 329 329 332 335 334 333 334 335 335 334 333 331 331 330 326 322 317 307 296 288 280 273 266 261 256 251
263 265 253 242 221 203 190 173 168 152 139 148 149 155 153 132 102 76 65 57 55 49 39 30 26 28 26 24 25 24 22 21 20 14 7 3 1 0 357 352 349 348 346 344 342 340 338 337 337 337 336 334 333 335 337 331 326 326 327 324 323 324 326 326 325 325 328 331 333 333 332 333 332 328 326 323 313 302 293 284 278 271 266 261 255
261 268 266 263 260 236 207 198 191 172 171 175 170 173 162 128 93 67 59 54 51 50 41 27 20 17 18 22 22 22 20 19 20 14 6 359 355 354 352 348 346 345 344 341 340 337 335 333 331 330 328 326 326 329 330 326 325 327 325 321 318 318 318 318 318 318 321 325 328 331 331 331 331 330 327 324 317 310 304 296 287 279 274 269 261
261 262 261 268 279 270 243 229 216 189 185 193 189 192 188 142 40 8 358 349 350 4 3 356 353 348 354 0 360 0 0 1 3 0 356 353 350 348 347 346 343 342 341 339 337 335 333 330 328 327 326 323 323 325 324 322 323 323 320 316 315 315 313 311 313 314 316 319 321 323 327 328 328 329 328 325 322 318 313 307 299 291 285 278 268
252 258 262 267 275 272 263 255 241 215 201 204 208 212 218 240 285 296 303 310 312 320 324 322 324 328 334 336 337 338 339 340 341 341 341 340 341 340 339 339 338 336 336 334 332 332 330 329 328 327 325 323 322 322 320 319 319 318 315 315 315 314 311 310 314 316 316 316 316 317 321 322 321 324 327 327 325 322 317 312 307 301 294 287 277
246 251 255 259 264 264 262 258 252 240 223 218 223 229 237 251 270 280 287 298 304 308 310 311 316 324 329 328 326 326 326 326 327 327 328 329 331 332 332 332 332 331 330 328 327 327 326 326 325 325 324 323 322 320 319 317 316 315 313 314 314 312 310 311 314 316 315 315 316 316 317 316 315 319 325 328 327 324 320 313 305 300 295 290 284
248 248 247 249 255 260 260 255 251 251 242 237 240 246 253 258 265 271 276 287 293 295 299 303 313 320 321 318 315 315 315 315 316 317 317 320 322 325 327 328 328 328 327 326 325 323 322 321 321 321 322 322 322 320 319 317 315 313 312 312 312 310 309 310 312 313 313 315 317 316 314 313 314 317 322 325 327 325 322 316 306 297 291 289 286
257 253 252 250 250 254 257 253 250 253 250 248 252 257 260 263 265 267 269 275 280 284 290 296 304 310 308 306 305 304 304 305 306 307 309 311 314 316 320 322 324 325 325 324 322 320 318 317 317 318 319 320 320 320 318 317 315 314 312 312 311 309 309 309 310 310 311 314 315 314 313 313 315 317 319 321 324 324 322 319 313 304 293 286 283
268 260 258 257 253 252 251 251 250 251 251 252 254 256 259 263 264 264 264 266 269 276 284 291 297 299 298 298 299 299 299 301 303 304 306 307 309 310 313 316 318 320 320 320 319 318 316 314 314 314 315 317 318 318 317 316 315 314 313 312 310 309 308 308 308 308 310 312 313 312 313 313 315 316 317 318 320 321 321 319 316 311 301 290 284
274 263 259 261 258 255 252 251 251 251 252 254 254 256 258 259 259 260 261 261 264 270 276 284 289 292 293 295 297 299 300 300 301 303 305 306 307 309 311 313 314 315 317 317 317 316 314 312 311 311 312 314 315 316 316 315 314 313 312 311 309 308 307 307 307 307 308 310 311 311 312 313 314 315 315 315 316 317 319 318 315 311 304 294 287
270 263 258 259 259 258 256 253 252 251 253 255 256 258 259 259 260 261 263 263 265 269 273 278 282 286 293 297 298 299 298 298 299 300 302 304 306 308 309 311 312 313 314 314 315 313 311 309 308 309 310 311 313 314 315 314 313 312 311 310 309 308 308 308 307 307 308 309 310 311 311 312 313 313 313 313 314 315 318 318 315 310 303 294 287
261 261 254 250 252 257 257 253 253 254 255 257 259 262 262 263 264 266 269 271 271 273 276 278 280 284 290 296 297 296 296 295 296 296 297 298 300 303 305 307 308 309 310 310 310 310 309 309 308 308 309 310 311 313 314 314 313 312 310 309 309 308 308 308 307 307 308 309 311 311 312 312 311 312 311 311 311 312 315 316 315 312 305 295 287
254 252 245 242 246 251 252 253 257 260 260 260 262 265 267 268 270 271 274 276 277 279 280 282 283 283 286 291 293 293 292 292 291 291 291 292 294 296 299 301 304 306 307 307 308 308 308 309 308 308 308 309 311 313 314 314 313 312 312 311 310 309 309 308 308 308 310 311 312 312 312 312 311 311 310 309 309 310 312 312 313 314 308 296 289
256 245 242 245 249 251 252 254 258 261 263 265 267 270 273 276 277 278 279 279 281 283 284 285 285 285 287 291 292 290 288 288 287 287 287 289 292 294 297 301 304 305 307 307 307 308 308 308 308 308 308 310 311 313 314 314 313 313 313 312 311 310 309 309 310 311 312 313 313 313 312 312 311 310 309 308 309 309 311 311 311 312 308 297 289
263 246 249 253 252 252 252 254 256 260 265 267 270 275 278 281 282 283 284 284 286 287 287 288 287 288 291 293 293 289 284 284 285 286 288 290 291 294 298 301 304 305 307 307 308 310 309 308 308 307 308 310 312 314 314 314 314 314 314 313 312 311 311 312 313 314 314 315 314 313 313 312 310 309 308 308 309 310 310 311 310 310 306 297 290
271 246 251 254 253 250 249 251 255 260 264 265 270 276 279 281 282 285 287 288 292 294 292 289 288 290 291 291 290 289 286 284 284 285 287 289 290 293 297 300 303 305 305 307 309 311 310 309 308 309 310 311 312 313 314 314 314 314 314 313 313 313 314 315 315 315 315 315 314 313 312 311 310 309 309 309 310 310 310 310 310 309 306 299 293
317 283 269 260 255 252 247 246 251 256 258 262 269 276 279 280 283 286 288 291 296 297 294 291 291 291 289 287 287 287 287 286 284 284 285 287 289 292 296 300 303 304 304 307 311 311 309 308 308 309 310 310 312 313 314 314 314 314 315 315 315 315 316 316 315 315 315 314 313 313 312 311 310 309 309 310 310 310 310 310 309 308 306 303 299
317 312 302 280 259 253 251 247 246 251 257 263 271 278 280 280 282 287 289 291 294 294 294 295 295 292 288 286 286 287 288 287 285 284 284 286 289 291 294 297 302 304 305 309 313 311 307 305 305 306 307 309 311 313 313 313 314 314 315 316 317 317 318 317 315 315 315 313 312 313 312 312 311 310 310 310 310 310 310 309 308 307 306 305 302
319 310 304 296 267 249 253 256 256 261 265 268 273 279 279 277 281 287 288 290 291 290 292 295 295 291 287 286 287 288 289 288 287 287 286 286 288 289 290 295 301 307 309 312 312 308 304 302 302 303 306 308 311 312 312 313 313 314 315 316 317 318 318 317 316 315 314 312 312 312 312 312 311 310 310 310 309 309 309 307 306 305 304 304 302
327 313 303 298 277 253 251 253 255 261 266 269 273 278 279 278 281 286 288 291 291 289 289 291 291 290 289 286 285 286 288 289 289 289 287 285 286 288 290 296 304 309 312 311 309 306 303 302 301 302 304 307 309 311 312 312 312 313 314 316 317 317 318 318 317 316 314 313 313 313 312 312 312 310 309 308 308 307 306 304 302 302 302 302 300
332 318 303 293 275 260 257 255 255 260 265 271 277 280 281 283 285 287 290 292 290 287 288 290 291 292 291 287 283 282 283 288 291 291 288 286 287 290 294 299 305 310 312 310 308 306 304 302 300 301 303 306 308 310 311 311 311 312 314 315 317 318 319 319 317 316 315 315 314 314 313 313 312 309 307 307 307 305 303 301 300 300 300 300 298
327 318 309 297 273 268 273 271 268 267 268 273 280 283 285 288 290 291 291 290 287 285 287 291 293 293 291 288 286 283 283 289 294 294 291 288 290 295 299 301 304 309 310 308 307 305 303 300 298 299 302 305 307 309 310 311 312 313 314 315 316 318 319 318 316 315 315 314 314 314 313 313 313 309 307 308 306 303 301 300 299 299 299 298 297
318 316 312 306 291 288 292 288 280 273 273 280 288 292 293 294 295 296 294 291 288 287 288 292 294 292 290 288 286 287 288 291 295 297 296 293 294 299 301 300 301 305 308 307 305 304 302 299 297 298 301 304 307 310 311 312 313 314 315 316 317 318 318 317 315 315 315 315 315 314 314 314 313 310 308 307 305 302 301 300 298 298 297 296 295
307 309 309 308 306 308 305 298 292 287 287 291 296 301 303 302 301 299 296 292 289 289 290 292 292 291 288 284 283 286 289 292 295 298 297 296 297 301 301 300 300 302 304 305 304 303 301 299 298 299 302 305 309 311 312 314 315 316 317 317 317 318 317 316 315 315 316 316 316 315 315 315 314 311 308 306 304 303 301 299 297 296 296 296 295
301 303 303 303 304 308 309 304 296 292 292 295 299 303 307 308 305 302 298 294 291 291 291 291 291 289 287 283 282 285 287 290 295 297 296 295 296 300 302 301 299 300 302 304 303 302 301 301 301 302 304 307 310 313 314 316 317 317 317 317 318 318 317 317 316 316 316 316 316 316 315 315 315 311 308 306 305 303 301 299 298 296 294 295 295
310 307 302 298 297 301 305 305 302 299 296 297 299 301 304 306 305 304 300 294 292 292 292 290 288 286 285 283 281 281 283 289 295 296 296 295 295 299 302 300 299 299 301 302 301 302 303 303 303 305 307 310 312 315 317 317 317 317 317 318 319 318 318 318 318 317 316 316 316 315 314 315 313 311 309 309 307 305 302 300 298 294 290 291 292
318 312 302 300 306 308 308 307 306 306 303 302 302 301 301 301 301 302 300 294 291 291 289 287 285 283 283 282 280 278 282 291 297 296 295 293 292 298 302 300 299 300 301 302 302 304 305 304 305 307 310 312 313 316 317 317 317 317 318 320 319 319 319 319 318 317 316 315 314 313 314 314 313 312 312 310 308 305 302 299 297 293 290 289 289
312 311 304 304 308 309 305 302 299 297 297 299 302 303 303 301 300 299 298 294 291 289 287 284 281 281 281 282 279 276 280 292 297 295 293 289 289 298 303 301 300 301 302 304 305 306 307 306 307 308 310 312 314 316 317 318 318 318 320 321 321 320 319 318 317 316 315 315 313 313 314 314 314 314 313 311 308 305 302 299 296 294 291 290 290
304 308 305 301 302 301 298 297 296 294 295 297 300 303 303 301 299 298 296 294 291 288 285 282 280 280 282 284 280 275 278 286 291 293 292 287 288 298 303 302 303 304 305 305 306 307 308 307 307 308 310 312 315 316 316 317 319 319 320 321 321 320 319 317 316 315 314 314 314 314 314 314 315 316 315 312 309 306 302 298 295 294 293 293 295
302 306 303 296 295 298 299 301 302 301 301 300 300 301 300 298 297 296 295 293 289 286 283 281 281 281 281 282 280 276 279 284 288 292 289 285 287 295 302 304 305 305 306 306 307 307 307 307 308 309 311 313 315 316 316 317 318 318 319 321 321 320 318 316 314 314 313 313 314 314 313 313 315 317 316 312 308 305 302 298 294 294 294 296 298
299 304 304 296 295 300 302 304 306 304 302 301 300 299 298 296 296 295 294 291 288 286 283 281 282 280 277 278 279 279 281 285 290 290 287 283 285 292 300 305 305 305 306 307 306 306 306 308 310 311 313 314 316 317 317 317 317 318 319 320 320 318 316 314 313 312 311 310 312 312 309 309 314 316 314 309 306 304 302 298 294 294 295 297 300
296 301 303 301 301 303 302 302 301 300 300 301 300 299 298 297 296 295 293 291 288 286 283 282 281 275 271 275 280 280 282 287 290 289 287 284 283 289 298 303 303 304 306 306 305 306 307 309 312 313 315 316 316 317 317 317 317 319 319 319 318 317 314 313 313 311 309 307 309 310 307 305 310 314 311 306 304 304 301 298 296 297 299 301 301
294 297 300 300 299 298 298 299 297 297 300 300 299 298 297 296 295 295 295 292 288 286 283 282 280 273 271 276 280 278 279 285 287 286 287 286 285 289 297 301 302 303 304 305 305 306 308 309 312 314 314 314 315 316 317 318 319 320 319 318 317 315 314 313 312 310 309 307 307 308 307 305 308 312 310 305 304 304 302 299 298 299 301 302 301
290 292 295 297 295 292 295 298 297 297 298 297 296 295 294 294 294 296 296 293 290 289 286 282 280 278 278 280 277 272 273 278 282 285 289 291 289 291 296 300 301 302 302 303 304 305 307 310 314 315 312 312 316 318 319 318 318 319 318 316 315 313 313 312 311 310 310 308 308 308 307 307 308 310 309 305 303 304 303 300 298 299 300 300 299
282 286 290 291 290 288 293 297 295 294 294 292 291 292 292 294 296 297 296 293 293 292 286 281 282 284 284 278 272 270 270 271 277 285 291 292 291 292 296 299 300 299 299 302 304 305 307 312 316 317 314 314 320 321 319 317 317 317 316 315 313 312 312 311 311 310 310 310 310 310 308 308 307 307 307 304 303 305 306 302 298 297 297 297 298
277 283 285 286 286 287 291 294 292 290 290 290 291 293 294 295 296 297 298 298 300 297 287 281 282 284 281 273 271 274 271 270 279 289 292 291 290 292 296 298 298 296 298 304 306 306 307 311 315 315 311 312 316 318 318 317 317 317 316 315 313 312 312 311 310 310 310 311 311 311 310 308 306 304 304 302 302 304 306 304 299 298 298 298 299
277 281 283 284 286 287 290 290 288 288 289 290 291 292 293 293 294 297 300 302 302 298 289 282 276 276 276 274 276 277 272 272 284 292 291 288 288 291 295 298 296 293 297 306 308 305 306 308 310 310 308 308 311 316 317 317 317 318 316 314 313 312 311 310 309 309 310 310 311 311 310 308 305 303 302 301 301 302 303 303 300 299 300 300 302
276 279 282 284 287 288 288 287 287 288 289 289 289 290 291 293 296 299 302 305 303 296 288 279 270 272 280 281 280 279 275 278 287 291 287 284 285 290 296 299 296 291 294 303 305 304 304 305 308 311 311 310 312 316 317 316 317 317 315 313 313 312 311 310 309 309 309 310 311 311 310 308 305 302 301 301 301 301 302 302 300 300 301 301 303
274 276 279 284 286 285 284 286 289 291 290 289 289 290 291 293 296 300 305 308 306 297 288 278 271 277 285 284 281 281 279 281 285 286 283 281 284 290 296 299 297 292 293 300 303 303 304 305 309 313 314 313 313 313 314 315 316 316 314 313 312 311 311 310 309 309 309 309 310 311 309 307 305 302 300 301 301 302 303 302 302 302 302 303 305
272 274 278 282 280 278 280 285 290 293 292 291 291 291 292 294 297 301 304 304 302 298 290 281 278 282 284 282 281 281 278 278 279 280 279 280 285 289 292 295 296 294 295 299 301 301 304 307 311 314 313 311 311 311 313 314 315 314 313 312 312 311 311 310 309 309 309 309 310 310 308 306 303 300 299 301 303 304 304 303 303 304 304 306 308
272 275 278 280 278 276 279 283 287 290 290 289 290 292 293 294 296 299 300 297 294 293 289 285 284 283 279 277 279 280 276 274 275 277 278 280 285 287 288 293 297 297 296 297 299 301 305 309 313 313 311 310 310 311 313 314 314 313 312 312 311 311 311 311 310 309 309 309 310 309 307 304 300 298 299 302 305 305 304 303 304 305 307 309 310
274 277 278 279 279 279 280 283 286 286 284 284 286 287 289 291 292 294 296 294 291 290 289 288 286 280 272 270 276 279 274 272 274 277 279 280 282 284 287 294 299 299 297 297 300 303 306 309 312 311 310 310 311 312 313 313 312 312 311 311 311 311 311 311 309 308 308 309 310 309 306 301 297 296 299 303 306 305 304 303 304 307 309 311 311
275 277 279 281 283 284 285 287 288 287 286 285 284 285 287 288 289 290 291 291 290 289 288 288 285 274 262 264 276 279 273 271 274 277 276 277 280 284 289 295 299 300 300 300 303 305 307 309 311 310 311 312 312 313 313 312 310 309 309 309 309 310 310 310 309 308 308 310 311 309 305 298 294 295 299 303 306 305 303 305 307 309 311 311 311
273 276 279 282 284 286 288 289 290 289 289 288 287 287 288 288 288 287 287 288 288 287 287 287 277 261 257 271 282 279 272 271 273 272 272 276 283 288 291 295 300 304 304 303 305 307 308 310 311 311 311 312 313 313 311 309 308 307 307 308 309 310 311 310 308 308 309 312 312 308 302 296 293 296 299 303 306 306 305 307 309 310 311 310 310
275 278 280 281 282 284 285 287 288 289 289 288 288 288 289 289 289 287 284 283 284 286 289 285 270 259 266 279 279 271 267 268 267 267 273 281 287 290 293 298 303 305 305 305 307 308 310 311 311 310 311 311 312 311 309 306 305 304 306 309 311 312 312 310 309 309 311 313 311 306 299 294 294 298 301 304 308 307 306 307 308 309 309 307 309
278 280 281 282 282 283 283 283 284 285 286 287 288 290 292 293 293 292 287 284 286 290 290 286 276 270 273 273 267 264 267 266 264 270 280 287 289 290 295 300 303 305 305 307 308 309 311 311 310 309 310 310 310 309 306 303 302 304 308 311 312 313 313 310 309 310 312 312 309 305 299 295 296 300 302 305 308 306 304 305 306 307 308 306 309
279 280 282 283 284 284 284 283 282 283 285 288 290 291 293 294 296 296 291 290 294 294 290 288 287 282 273 265 265 270 270 265 266 275 282 286 288 292 297 301 303 305 306 307 308 309 310 309 309 309 310 309 307 305 303 301 303 306 309 311 311 312 311 309 308 309 311 311 307 303 299 297 298 301 303 304 305 304 302 303 305 306 305 305 310
278 280 282 281 281 281 282 283 284 286 288 290 291 291 292 294 295 293 290 290 292 289 283 285 289 285 272 265 267 272 269 264 268 276 282 288 294 298 302 303 304 305 306 307 308 309 308 308 308 309 309 307 305 303 302 302 304 307 309 309 310 310 310 308 307 308 310 309 306 302 299 298 299 301 302 303 303 302 301 301 303 303 303 304 310
278 279 278 277 277 278 280 282 285 287 289 291 292 293 294 297 299 297 293 291 289 283 279 281 284 280 272 267 266 265 262 265 276 285 291 297 302 303 304 304 305 306 307 307 308 308 308 308 308 308 308 307 305 303 302 303 305 307 308 308 308 309 308 307 306 308 310 308 305 302 298 297 300 301 301 302 302 300 299 299 300 300 300 303 311
276 276 276 277 277 278 280 282 285 287 290 291 293 295 297 299 299 297 295 297 294 283 272 272 276 274 268 264 258 255 265 282 295 300 302 305 306 305 305 305 306 307 307 308 308 308 307 307 307 307 308 308 306 303 302 304 306 307 307 307 308 308 308 307 307 308 309 307 304 301 296 294 298 300 301 301 301 300 298 298 297 296 298 302 309
276 276 278 279 280 281 282 284 286 288 289 290 291 294 295 294 293 293 293 297 295 279 263 263 275 280 275 270 264 265 279 295 303 306 306 306 306 306 307 307 307 307 307 308 308 307 307 307 308 308 309 308 305 303 303 304 306 306 306 307 307 308 308 307 307 308 307 305 304 302 295 290 293 298 300 301 301 300 299 299 297 294 295 300 306
Height
5931 5931 5931 5931 5931 5931 5931 5931 5931 5931 5931 5932 5933 5933 5933 5934 5934 5934 5933 5933 5932 5932 5931 5930 5929 5928 5927 5927 5926 5925 5924 5924 5923 5922 5921 5920 5920 5920 5919 5918 5917 5916 5915 5914 5913 5912 5911 5910 5909 5908 5907 5906 5904 5903 5903 5901 5899 5898 5897 5896 5894 5893 5892 5891 5889 5887 5885 5883 5882 5881 5880 5880 5879 5877 5875 5874 5872 5871 5869 5869 5869 5870 5871 5872 5873
5932 5932 5932 5931 5931 5931 5931 5931 5931 5931 5931 5932 5933 5933 5933 5933 5933 5933 5933 5932 5932 5932 5931 5930 5929 5928 5928 5927 5926 5925 5924 5923 5922 5921 5920 5919 5919 5918 5917 5917 5916 5915 5914 5913 5912 5911 5910 5909 5908 5907 5906 5905 5904 5903 5902 5900 5898 5897 5896 5895 5894 5892 5891 5890 5888 5886 5884 5882 5880 5879 5878 5878 5878 5876 5874 5872 5870 5868 5867 5866 5866 5867 5867 5868 5870
5931 5931 5932 5932 5931 5931 5931 5931 5931 5931 5931 5932 5933 5933 5933 5933 5933 5932 5932 5932 5932 5931 5930 5930 5929 5928 5927 5926 5926 5925 5924 5923 5922 5920 5919 5918 5917 5916 5915 5915 5914 5913 5912 5911 5910 5909 5908 5908 5907 5906 5905 5904 5903 5902 5901 5899 5897 5896 5895 5894 5893 5891 5889 5889 5887 5884 5883 5881 5879 5877 5875 5874 5875 5874 5872 5871 5868 5866 5865 5864 5864 5864 5865 5866 5867
5930 5931 5931 5932 5931 5931 5931 5931 5931 5931 5931 5931 5932 5932 5932 5932 5932 5932 5932 5931 5931 5930 5930 5929 5929 5928 5927 5926 5925 5924 5923 5922 5921 5920 5918 5917 5916 5914 5913 5912 5911 5910 5909 5908 5908 5907 5906 5905 5905 5904 5903 5902 5901 5900 5899 5897 5896 5894 5893 5892 5890 5889 5887 5887 5885 5883 5881 5880 5878 5876 5875 5873 5872 5871 5870 5868 5867 5865 5863 5862 5862 5862 5862 5863 5864
5929 5929 5930 5930 5931 5930 5930 5931 5930 5930 5931 5931 5931 5931 5931 5930 5930 5931 5930 5930 5929 5929 5929 5928 5928 5927 5926 5925 5923 5922 5921 5921 5920 5919 5917 5916 5915 5913 5912 5910 5909 5908 5907 5906 5905 5905 5904 5903 5902 5901 5900 5899 5898 5897 5896 5895 5894 5892 5891 5889 5887 5886 5884 5883 5882 5880 5878 5877 5876 5875 5874 5872 5870 5869 5868 5865 5864 5863 5862 5860 5859 5859 5859 5859 5860
5928 5928 5929 5929 5929 5929 5930 5930 5930 5930 5930 5930 5930 5930 5929 5929 5929 5929 5929 5928 5927 5927 5927 5927 5927 5926 5924 5923 5922 5921 5920 5919 5918 5917 5916 5915 5913 5912 5910 5909 5908 5907 5906 5905 5904 5902 5901 5900 5899 5898 5897 5896 5895 5894 5893 5892 5891 5889 5888 5886 5885 5883 5881 5879 5879 5877 5874 5873 5872 5872 5872 5871 5869 5868 5866 5864 5861 5860 5860 5858 5857 5856 5855 5855 5855
5927 5927 5927 5927 5928 5928 5928 5929 5929 5929 5929 5929 5929 5928 5928 5927 5927 5927 5927 5926 5926 5926 5926 5925 5925 5924 5923 5922 5921 5920 5919 5918 5917 5916 5915 5914 5912 5911 5909 5907 5906 5905 5903 5902 5901 5900 5898 5897 5896 5895 5894 5893 5891 5890 5889 5888 5887 5886 5885 5884 5882 5880 5878 5876 5875 5873 5871 5869 5868 5868 5867 5867 5865 5864 5864 5862 5860 5858 5857 5856 5855 5853 5851 5850 5850
5926 5926 5926 5926 5926 5926 5926 5927 5927 5927 5927 5927 5927 5926 5926 5926 5926 5925 5925 5925 5925 5925 5924 5923 5923 5922 5922 5921 5920 5919 5918 5917 5916 5915 5914 5912 5911 5909 5907 5906 5904 5903 5901 5900 5898 5897 5896 5895 5893 5892 5890 5889 5888 5887 5885 5884 5883 5882 5881 5881 5879 5877 5875 5873 5871 5870 5868 5866 5865 5863 5862 5861 5860 5860 5859 5859 5858 5856 5854 5853 5852 5850 5848 5847 5846
5924 5925 5925 5925 5925 5924 5924 5925 5925 5925 5925 5925 5924 5924 5924 5924 5924 5924 5924 5924 5923 5923 5922 5921 5921 5920 5920 5920 5919 5918 5916 5915 5914 5913 5911 5910 5908 5907 5905 5904 5902 5901 5899 5898 5897 5895 5894 5893 5891 5889 5888 5887 5885 5884 5882 5881 5880 5878 5877 5876 5875 5873 5872 5870 5868 5866 5865 5863 5861 5859 5857 5856 5855 5855 5854 5853 5853 5853 5852 5851 5849 5846 5844 5842 5842
5921 5922 5923 5923 5923 5923 5922 5923 5923 5923 5923 5923 5922 5923 5922 5922 5922 5921 5921 5921 5921 5921 5920 5919 5919 5918 5917 5917 5916 5915 5913 5912 5911 5910 5908 5907 5905 5904 5903 5902 5900 5899 5898 5896 5894 5893 5892 5891 5889 5888 5886 5885 5883 5881 5880 5879 5877 5875 5874 5872 5871 5870 5868 5867 5865 5863 5861 5860 5858 5856 5853 5852 5850 5850 5849 5849 5848 5848 5848 5847 5845 5844 5842 5838 5837
5919 5919 5920 5921 5921 5921 5921 5921 5921 5921 5921 5920 5920 5920 5920 5920 5919 5918 5918 5918 5919 5918 5918 5918 5917 5916 5914 5913 5912 5912 5910 5909 5908 5907 5906 5905 5903 5902 5900 5899 5898 5897 5895 5894 5892 5891 5890 5889 5888 5886 5884 5883 5881 5879 5877 5876 5874 5873 5871 5869 5867 5866 5864 5863 5861 5859 5858 5856 5854 5852 5850 5848 5847 5845 5845 5844 5843 5842 5842 5841 5840 5840 5839 5837 5834
5917 5917 5918 5918 5919 5919 5919 5919 5918 5918 5918 5918 5918 5918 5917 5917 5916 5916 5915 5915 5916 5916 5916 5915 5914 5913 5912 5910 5909 5908 5907 5907 5906 5905 5904 5903 5901 5900 5898 5897 5896 5895 5893 5892 5890 5889 5887 5886 5885 5884 5882 5880 5879 5877 5875 5873 5871 5870 5868 5866 5864 5862 5861 5859 5858 5856 5854 5852 5849 5848 5846 5844 5843 5841 5840 5839 5838 5837 5837 5837 5836 5835 5834 5833 5831
5915 5915 5916 5916 5916 5916 5916 5916 5916 5916 5915 5915 5916 5915 5914 5914 5913 5914 5913 5913 5913 5913 5913 5912 5911 5910 5909 5908 5907 5905 5904 5904 5903 5903 5902 5901 5900 5898 5897 5895 5894 5893 5891 5889 5888 5886 5884 5883 5882 5881 5879 5878 5876 5874 5872 5870 5868 5866 5864 5863 5861 5859 5858 5856 5854 5852 5850 5848 5845 5843 5841 5839 5838 5836 5835 5834 5832 5831 5831 5831 5831 5830 5829 5828 5827
5914 5914 5914 5914 5914 5914 5913 5914 5914 5914 5913 5913 5913 5913 5912 5911 5910 5910 5910 5910 5910 5909 5909 5908 5907 5907 5906 5905 5904 5903 5902 5901 5900 5900 5899 5898 5897 5895 5894 5893 5891 5890 5889 5887 5885 5883 5881 5880 5879 5878 5877 5875 5873 5871 5869 5867 5864 5862 5860 5859 5857 5855 5854 5852 5850 5848 5846 5844 5841 5839 5836 5834 5833 5831 5830 5828 5827 5825 5824 5824 5824 5824 5823 5822 5822
5911 5912 5913 5913 5912 5911 5911 5911 5911 5911 5911 5911 5911 5911 5910 5909 5908 5907 5907 5906 5906 5906 5905 5904 5904 5903 5903 5902 5902 5901 5900 5899 5897 5896 5896 5895 5893 5892 5890 5889 5888 5887 5885 5884 5882 5880 5878 5877 5876 5875 5874 5872 5870 5868 5866 5864 5861 5859 5857 5855 5853 5851 5850 5848 5846 5844 5842 5840 5837 5835 5832 5830 5828 5826 5824 5823 5821 5820 5818 5817 5817 5818 5818 5817 5816
5908 5909 5910 5910 5910 5909 5908 5908 5908 5909 5909 5909 5909 5908 5908 5907 5905 5904 5904 5903 5903 5903 5902 5901 5901 5900 5900 5899 5899 5898 5897 5896 5895 5893 5892 5891 5890 5888 5887 5886 5885 5884 5882 5880 5878 5876 5875 5874 5873 5872 5870 5869 5867 5865 5863 5860 5858 5856 5854 5852 5850 5848 5846 5844 5842 5840 5838 5835 5833 5830 5828 5825 5823 5821 5819 5818 5816 5814 5812 5811 5809 5809 5810 5811 5811
5906 5906 5907 5907 5907 5906 5906 5906 5906 5906 5907 5907 5906 5906 5905 5904 5903 5902 5901 5901 5900 5900 5899 5899 5898 5897 5897 5896 5895 5895 5894 5893 5892 5891 5890 5888 5886 5885 5884 5883 5882 5880 5879 5877 5875 5873 5871 5870 5869 5867 5866 5865 5863 5862 5859 5857 5855 5853 5851 5848 5846 5844 5842 5840 5837 5835 5833 5830 5828 5825 5823 5820 5818 5816 5814 5812 5810 5807 5805 5804 5802 5800 5800 5801 5802
5903 5903 5904 5904 5904 5903 5903 5903 5904 5904 5904 5904 5904 5903 5903 5902 5901 5900 5899 5898 5898 5898 5897 5896 5896 5895 5894 5893 5892 5891 5890 5890 5889 5888 5887 5885 5883 5882 5880 5879 5878 5877 5875 5873 5871 5870 5868 5867 5865 5864 5863 5861 5860 5858 5856 5853 5851 5849 5846 5844 5841 5839 5837 5835 5832 5830 5828 5825 5823 5820 5817 5815 5813 5810 5808 5806 5803 5801 5798 5796 5794 5792 5791 5790 5790
5899 5899 5900 5900 5900 5900 5900 5901 5901 5901 5902 5902 5902 5901 5901 5900 5899 5898 5898 5897 5896 5896 5895 5894 5893 5892 5891 5890 5889 5888 5887 5886 5886 5885 5883 5882 5880 5878 5877 5876 5875 5873 5871 5870 5868 5867 5865 5864 5862 5861 5859 5858 5856 5854 5852 5849 5847 5844 5842 5839 5837 5834 5832 5830 5827 5825 5823 5820 5818 5815 5812 5810 5808 5805 5802 5800 5797 5794 5791 5789 5787 5784 5783 5782 5781
5896 5896 5896 5897 5897 5897 5898 5898 5898 5898 5899 5900 5900 5899 5899 5898 5897 5896 5895 5895 5894 5893 5893 5892 5891 5889 5888 5886 5885 5884 5884 5883 5882 5882 5880 5878 5876 5875 5874 5872 5871 5869 5867 5866 5865 5863 5862 5860 5859 5857 5855 5854 5852 5850 5847 5845 5843 5840 5837 5835 5832 5829 5827 5825 5822 5819 5817 5814 5812 5809 5806 5804 5802 5799 5796 5794 5791 5788 5785 5782 5780 5778 5776 5774 5773
5893 5894 5893 5894 5894 5894 5895 5895 5895 5896 5897 5897 5897 5897 5897 5896 5895 5894 5893 5893 5892 5890 5890 5889 5888 5886 5884 5883 5881 5881 5880 5879 5878 5878 5877 5875 5873 5872 5870 5868 5866 5865 5863 5862 5861 5859 5858 5857 5855 5853 5851 5849 5847 5845 5843 5841 5838 5836 5833 5830 5828 5825 5822 5819 5816 5814 5811 5808 5806 5804 5801 5798 5796 5793 5790 5788 5786 5782 5779 5776 5774 5772 5769 5767 5766
5891 5891 5891 5892 5892 5893 5893 5893 5893 5893 5894 5894 5895 5895 5894 5894 5893 5892 5891 5890 5889 5888 5887 5885 5884 5883 5881 5879 5877 5877 5876 5875 5874 5874 5873 5871 5870 5868 5866 5864 5863 5861 5859 5858 5857 5855 5854 5853 5851 5849 5847 5845 5843 5841 5839 5837 5834 5830 5827 5825 5822 5820 5817 5814 5811 5808 5806 5803 5801 5798 5796 5793 5790 5786 5783 5781 5780 5776 5773 5770 5767 5765 5763 5760 5759
5889 5888 5888 5889 5890 5890 5890 5890 5890 5891 5891 5891 5891 5891 5891 5891 5891 5890 5888 5887 5885 5885 5883 5882 5880 5879 5878 5876 5874 5873 5872 5871 5871 5870 5869 5868 5866 5865 5863 5861 5859 5857 5856 5854 5853 5852 5851 5849 5848 5845 5843 5841 5839 5837 5834 5831 5828 5825 5822 5819 5817 5814 5811 5809 5806 5803 5801 5798 5796 5793 5790 5787 5785 5781 5777 5774 5773 5770 5767 5765 5762 5759 5757 5754 5752
5887 5886 5885 5886 5886 5886 5887 5887 5887 5888 5888 5888 5888 5888 5888 5888 5888 5887 5885 5883 5881 5881 5879 5878 5877 5876 5874 5873 5871 5869 5867 5866 5866 5866 5865 5864 5862 5861 5859 5857 5855 5854 5852 5851 5850 5848 5847 5846 5844 5842 5840 5837 5835 5832 5829 5826 5823 5820 5817 5815 5812 5809 5806 5803 5801 5798 5795 5793 5791 5788 5785 5782 5779 5775 5772 5769 5766 5764 5761 5758 5756 5753 5751 5749 5747
5885 5884 5883 5883 5883 5883 5883 5884 5884 5884 5884 5885 5885 5885 5885 5885 5885 5884 5882 5880 5878 5877 5876 5874 5873 5872 5871 5869 5868 5866 5864 5862 5862 5862 5861 5859 5858 5856 5855 5854 5852 5851 5849 5847 5846 5845 5843 5841 5839 5837 5835 5833 5830 5828 5825 5822 5819 5816 5814 5811 5808 5804 5801 5798 5795 5792 5789 5787 5785 5782 5779 5776 5774 5770 5767 5764 5761 5758 5754 5751 5749 5749 5746 5744 5742
5882 5881 5880 5880 5881 5881 5881 5881 5881 5881 5881 5881 5882 5882 5882 5882 5882 5881 5879 5876 5874 5873 5871 5870 5869 5868 5867 5865 5864 5862 5860 5859 5859 5858 5856 5855 5853 5852 5851 5850 5849 5848 5846 5844 5842 5841 5839 5837 5835 5833 5831 5828 5826 5823 5820 5817 5815 5812 5810 5807 5803 5799 5796 5793 5790 5787 5784 5781 5779 5777 5774 5771 5769 5765 5762 5759 5756 5752 5748 5745 5744 5743 5741 5739 5737
5879 5878 5878 5878 5878 5878 5878 5878 5878 5878 5878 5878 5879 5879 5879 5879 5879 5877 5875 5873 5871 5869 5867 5865 5864 5864 5863 5861 5859 5857 5855 5854 5854 5853 5852 5850 5849 5849 5848 5847 5845 5844 5842 5840 5838 5836 5835 5833 5831 5829 5826 5823 5821 5818 5815 5812 5810 5807 5804 5802 5799 5795 5791 5788 5785 5782 5779 5777 5774 5771 5769 5766 5763 5760 5757 5753 5750 5747 5744 5741 5738 5737 5735 5734 5732
5877 5877 5877 5876 5875 5875 5875 5876 5876 5876 5876 5875 5875 5875 5875 5875 5874 5873 5871 5869 5867 5865 5863 5860 5859 5859 5858 5856 5855 5853 5851 5850 5849 5848 5848 5846 5845 5845 5844 5842 5841 5839 5837 5835 5833 5832 5830 5828 5826 5824 5821 5818 5816 5813 5810 5808 5805 5802 5799 5796 5794 5790 5787 5783 5780 5778 5775 5772 5770 5767 5764 5761 5758 5755 5751 5747 5744 5741 5739 5736 5733 5731 5730 5729 5727
5876 5877 5876 5874 5873 5873 5873 5873 5873 5873 5872 5872 5872 5871 5870 5870 5869 5868 5866 5865 5863 5860 5858 5856 5854 5854 5853 5851 5850 5849 5847 5846 5845 5844 5843 5842 5841 5841 5839 5838 5837 5834 5832 5830 5829 5827 5825 5823 5821 5818 5816 5813 5811 5808 5806 5803 5800 5797 5794 5791 5789 5785 5782 5779 5776 5773 5770 5768 5765 5762 5759 5756 5753 5750 5746 5742 5738 5736 5733 5731 5728 5726 5725 5723 5721
5873 5874 5874 5872 5871 5870 5869 5869 5868 5868 5867 5867 5867 5867 5866 5865 5864 5863 5862 5860 5858 5856 5853 5851 5850 5849 5847 5846 5845 5844 5842 5841 5841 5840 5839 5838 5837 5836 5835 5833 5831 5829 5827 5826 5824 5822 5820 5817 5815 5813 5811 5809 5806 5804 5801 5798 5795 5792 5789 5787 5784 5781 5778 5775 5772 5769 5766 5764 5761 5758 5756 5753 5749 5745 5741 5737 5734 5731 5729 5727 5724 5722 5720 5718 5716
5870 5870 5870 5869 5868 5867 5866 5865 5864 5863 5862 5862 5862 5862 5861 5860 5859 5858 5857 5855 5853 5851 5849 5847 5846 5844 5842 5839 5838 5838 5838 5837 5837 5836 5835 5834 5833 5832 5830 5829 5827 5825 5823 5821 5819 5817 5815 5813 5810 5808 5806 5804 5802 5799 5796 5793 5790 5787 5785 5782 5780 5776 5773 5770 5767 5765 5762 5760 5757 5754 5752 5749 5745 5741 5737 5733 5730 5727 5725 5722 5720 5718 5716 5714 5712
5865 5865 5865 5864 5864 5864 5863 5863 5862 5860 5859 5857 5856 5856 5855 5854 5853 5852 5851 5850 5848 5847 5844 5843 5842 5841 5838 5835 5833 5834 5834 5833 5833 5833 5831 5830 5829 5827 5826 5825 5823 5821 5819 5817 5815 5812 5810 5808 5806 5804 5801 5799 5797 5794 5791 5788 5785 5782 5780 5777 5775 5772 5768 5765 5763 5760 5758 5755 5753 5751 5747 5744 5741 5737 5733 5730 5726 5724 5721 5718 5715 5713 5712 5709 5707
5861 5860 5860 5860 5860 5860 5860 5859 5858 5857 5856 5854 5852 5851 5849 5848 5846 5846 5846 5845 5844 5842 5841 5839 5838 5836 5836 5836 5833 5831 5830 5829 5829 5829 5827 5826 5824 5823 5822 5820 5818 5817 5814 5812 5810 5807 5805 5803 5801 5799 5797 5794 5792 5789 5786 5783 5780 5778 5775 5772 5770 5766 5763 5761 5758 5756 5754 5751 5749 5746 5743 5740 5736 5732 5729 5725 5723 5720 5718 5714 5711 5709 5707 5705 5702
5857 5857 5857 5857 5857 5856 5856 5855 5854 5853 5852 5850 5848 5846 5844 5842 5841 5841 5841 5839 5838 5838 5837 5835 5833 5832 5832 5833 5830 5827 5826 5825 5824 5824 5822 5821 5819 5819 5818 5816 5814 5812 5810 5808 5805 5802 5801 5799 5797 5794 5791 5789 5787 5785 5782 5779 5776 5774 5771 5768 5764 5761 5758 5756 5754 5752 5749 5746 5744 5741 5739 5735 5731 5727 5724 5721 5719 5717 5714 5711 5708 5706 5704 5701 5697
5852 5853 5855 5855 5855 5854 5852 5851 5850 5849 5847 5845 5843 5840 5838 5837 5836 5836 5835 5834 5833 5833 5831 5829 5828 5828 5827 5826 5824 5822 5821 5820 5819 5819 5817 5816 5815 5815 5813 5811 5809 5807 5805 5803 5800 5798 5797 5795 5793 5789 5785 5782 5781 5780 5777 5775 5772 5770 5767 5763 5760 5756 5753 5751 5748 5746 5744 5741 5739 5736 5733 5730 5727 5723 5719 5716 5714 5713 5710 5708 5705 5702 5700 5697 5694
5849 5850 5851 5851 5852 5851 5849 5846 5845 5844 5842 5839 5837 5835 5833 5832 5830 5830 5830 5829 5829 5828 5824 5822 5823 5823 5821 5819 5817 5817 5815 5815 5814 5813 5812 5812 5811 5811 5808 5806 5804 5802 5801 5798 5795 5793 5793 5792 5790 5786 5782 5778 5777 5775 5772 5769 5767 5764 5761 5758 5754 5751 5749 5746 5743 5741 5738 5736 5733 5731 5728 5725 5721 5718 5715 5712 5710 5709 5707 5704 5701 5699 5696 5693 5690
5846 5846 5846 5846 5846 5846 5844 5842 5840 5839 5837 5834 5832 5829 5827 5826 5824 5824 5825 5824 5822 5820 5816 5814 5815 5817 5815 5813 5812 5812 5811 5810 5809 5809 5808 5808 5807 5806 5803 5801 5799 5798 5796 5794 5791 5790 5789 5788 5786 5784 5780 5776 5773 5770 5766 5763 5761 5758 5755 5751 5749 5746 5744 5742 5739 5736 5733 5730 5728 5725 5723 5720 5716 5713 5710 5708 5706 5705 5703 5700 5698 5695 5692 5689 5686
5843 5842 5840 5840 5840 5840 5839 5838 5836 5835 5832 5829 5827 5824 5822 5820 5819 5819 5819 5817 5815 5812 5809 5808 5809 5811 5812 5810 5807 5806 5806 5805 5804 5804 5803 5803 5802 5800 5798 5797 5795 5794 5792 5790 5788 5785 5784 5783 5781 5779 5774 5770 5766 5763 5760 5758 5755 5752 5748 5745 5743 5741 5739 5737 5734 5731 5728 5725 5722 5720 5717 5714 5711 5708 5706 5703 5702 5701 5699 5697 5694 5692 5689 5685 5683
5838 5837 5836 5836 5836 5835 5834 5833 5831 5829 5827 5824 5821 5819 5816 5815 5814 5814 5813 5812 5810 5808 5806 5806 5806 5807 5808 5806 5803 5800 5800 5799 5798 5798 5798 5797 5796 5795 5794 5792 5791 5790 5788 5786 5783 5780 5778 5776 5775 5771 5767 5763 5760 5758 5755 5753 5750 5746 5742 5740 5738 5736 5733 5731 5729 5726 5723 5720 5717 5714 5712 5709 5706 5704 5702 5700 5698 5697 5695 5693 5691 5688 5685 5682 5680
5832 5831 5831 5832 5832 5831 5830 5828 5826 5823 5821 5819 5816 5814 5812 5811 5809 5809 5809 5808 5806 5805 5804 5804 5804 5803 5803 5801 5798 5796 5795 5793 5791 5791 5792 5792 5791 5790 5789 5788 5787 5786 5784 5781 5778 5775 5772 5770 5768 5765 5761 5758 5755 5752 5750 5747 5744 5740 5737 5734 5732 5730 5728 5725 5723 5721 5718 5715 5712 5709 5706 5704 5702 5700 5698 5696 5694 5693 5691 5688 5686 5684 5682 5679 5676
5826 5826 5825 5825 5826 5825 5825 5823 5821 5819 5816 5814 5812 5810 5808 5807 5806 5805 5805 5804 5802 5801 5800 5800 5800 5798 5797 5795 5793 5791 5789 5786 5785 5786 5786 5786 5785 5785 5784 5784 5782 5780 5778 5776 5773 5770 5766 5763 5761 5759 5756 5753 5750 5747 5744 5741 5738 5734 5731 5729 5726 5724 5722 5720 5717 5715 5713 5710 5707 5704 5701 5699 5697 5695 5694 5693 5691 5689 5687 5685 5682 5680 5678 5675 5673
5821 5821 5820 5819 5819 5818 5818 5817 5816 5814 5812 5810 5808 5806 5805 5804 5803 5802 5800 5799 5798 5797 5796 5795 5794 5792 5791 5789 5787 5786 5783 5780 5780 5782 5782 5781 5780 5780 5779 5779 5777 5774 5772 5770 5767 5764 5761 5758 5755 5753 5751 5747 5744 5741 5738 5735 5732 5729 5726 5723 5721 5719 5717 5714 5712 5710 5707 5705 5702 5700 5697 5695 5693 5691 5690 5689 5688 5686 5683 5681 5679 5677 5674 5672 5669
5816 5815 5813 5811 5810 5810 5810 5809 5809 5807 5806 5805 5803 5802 5801 5801 5800 5798 5796 5794 5793 5793 5792 5790 5788 5786 5783 5781 5781 5780 5777 5775 5777 5777 5777 5776 5776 5775 5774 5773 5771 5768 5766 5764 5760 5757 5755 5752 5750 5747 5744 5741 5738 5735 5732 5729 5726 5723 5721 5718 5716 5714 5712 5709 5707 5705 5702 5700 5697 5695 5693 5691 5689 5688 5687 5686 5684 5682 5680 5678 5676 5674 5671 5669 5666
5811 5809 5807 5805 5804 5802 5802 5801 5801 5800 5799 5798 5797 5796 5795 5795 5794 5792 5791 5789 5788 5788 5787 5786 5785 5782 5778 5776 5775 5774 5772 5772 5773 5773 5772 5771 5771 5769 5768 5766 5764 5762 5759 5756 5754 5751 5749 5746 5743 5740 5738 5735 5732 5729 5726 5724 5721 5719 5716 5714 5712 5709 5707 5705 5702 5700 5697 5695 5693 5690 5689 5687 5686 5685 5684 5682 5681 5679 5677 5675 5673 5671 5669 5666 5664
5805 5803 5801 5800 5798 5797 5797 5796 5795 5794 5792 5791 5791 5790 5790 5789 5787 5785 5784 5784 5784 5783 5781 5780 5779 5778 5775 5773 5770 5768 5767 5768 5768 5767 5766 5766 5765 5763 5761 5759 5757 5755 5752 5750 5747 5745 5742 5740 5737 5734 5732 5730 5728 5725 5722 5719 5717 5715 5712 5709 5707 5705 5702 5700 5697 5695 5693 5691 5689 5687 5685 5684 5682 5681 5680 5679 5678 5676 5674 5672 5670 5668 5666 5664 5661
5799 5797 5795 5793 5792 5791 5791 5791 5790 5789 5787 5786 5786 5785 5785 5784 5782 5780 5778 5778 5778 5777 5775 5773 5773 5772 5769 5768 5765 5763 5762 5763 5762 5761 5761 5760 5758 5757 5755 5753 5751 5749 5746 5744 5741 5739 5736 5734 5731 5729 5727 5725 5723 5720 5717 5715 5712 5710 5707 5704 5702 5700 5697 5695 5692 5690 5689 5687 5685 5683 5682 5680 5679 5678 5677 5676 5674 5672 5671 5669 5667 5665 5663 5661 5659
5793 5791 5789 5787 5786 5785 5784 5784 5784 5784 5782 5781 5781 5780 5780 5779 5777 5776 5774 5772 5771 5770 5767 5765 5765 5765 5762 5760 5758 5757 5757 5757 5757 5755 5755 5754 5753 5752 5750 5747 5745 5743 5741 5738 5736 5733 5731 5729 5726 5723 5721 5719 5717 5714 5712 5709 5707 5704 5702 5699 5697 5695 5693 5690 5688 5686 5685 5683 5682 5680 5679 5677 5676 5674 5673 5672 5671 5669 5667 5666 5664 5662 5660 5659 5656
5787 5786 5784 5783 5781 5779 5778 5778 5778 5778 5777 5776 5775 5774 5774 5773 5772 5771 5770 5767 5765 5764 5761 5758 5758 5757 5754 5751 5750 5751 5752 5752 5751 5750 5750 5749 5747 5745 5743 5741 5739 5737 5735 5733 5730 5728 5726 5723 5720 5718 5716 5714 5712 5709 5706 5704 5702 5699 5697 5694 5692 5690 5688 5686 5684 5682 5681 5680 5678 5677 5675 5674 5673 5671 5670 5670 5669 5667 5665 5663 5661 5659 5658 5656 5654
5781 5780 5779 5778 5776 5775 5774 5773 5772 5772 5771 5770 5769 5768 5769 5768 5766 5765 5763 5761 5758 5757 5754 5751 5748 5746 5744 5744 5745 5747 5747 5747 5747 5746 5745 5742 5740 5738 5737 5735 5733 5731 5729 5727 5725 5723 5720 5718 5715 5713 5711 5709 5706 5703 5701 5699 5697 5694 5692 5690 5688 5686 5684 5682 5679 5678 5677 5676 5674 5673 5672 5671 5670 5668 5668 5667 5666 5664 5663 5661 5659 5657 5655 5653 5651
5775 5774 5774 5773 5771 5770 5769 5768 5767 5766 5766 5765 5764 5764 5764 5763 5761 5759 5757 5754 5751 5748 5746 5744 5741 5740 5740 5741 5743 5743 5742 5741 5740 5739 5737 5735 5734 5733 5731 5729 5726 5724 5722 5721 5719 5717 5715 5712 5710 5708 5706 5703 5700 5698 5696 5694 5692 5690 5688 5686 5684 5682 5680 5678 5676 5674 5673 5672 5670 5669 5668 5667 5667 5666 5665 5664 5663 5662 5660 5658 5657 5655 5653 5651 5649
5769 5768 5767 5766 5765 5765 5764 5762 5761 5761 5761 5761 5760 5759 5758 5758 5755 5752 5751 5750 5746 5743 5742 5742 5741 5740 5741 5741 5740 5739 5736 5734 5733 5731 5730 5729 5727 5726 5724 5722 5720 5718 5716 5714 5713 5711 5709 5707 5704 5701 5699 5697 5695 5693 5691 5689 5687 5685 5683 5681 5679 5677 5676 5674 5672 5670 5669 5668 5667 5666 5665 5664 5663 5663 5662 5661 5660 5659 5658 5656 5654 5653 5651 5649 5647